Terminal Aerodrome Forecast
Issued by NWS

Home | Current Version | Previous Version | Text Only | Print | Product List | Glossary On
Versions: 1 2 3 4 5 6 7 8 9 10 11 12 13 14 15 16 17
000
FTUS42 KKEY 180537
TAFMTH
TAF
KMTH 180537Z 1806/1906 05007KT P6SM FEW015 SCT040
      TEMPO 1809/1813 BKN025=

USA.gov is the U.S. government's official web portal to all federal, state and local government web resources and services.